Worcester, MA

11:12 PM EST on February 21, 2017 (GMT -0500)
Worcester Regional

Weather History for KORH - March, 2014

Change the Weather History Date:

Tuesday, March 25, 2014

  Actual Average Record
Temperature  
Mean Temperature 23 °F 38 °F  
Max Temperature 34 °F 46 °F 75 °F (1910)
Min Temperature 12 °F 29 °F 5 °F (1960)
Degree Days  
Heating Degree Days 42 27  
Month to date heating degree days 944 782  
Since 1 July heating degree days 5998 5619  
Cooling Degree Days 0 0  
Month to date cooling degree days 0 0  
Year to date cooling degree days 0 0  
Moisture  
Dew Point 6 °F    
Average Humidity 49    
Maximum Humidity 67    
Minimum Humidity 31    
Precipitation  
Precipitation 0.00 in 0.15 in 1.83 in (1909)
Month to date precipitation 1.30 3.35  
Year to date precipitation 8.48 10.07  
Sea Level Pressure  
Sea Level Pressure 30.05 in    
Wind  
Wind Speed 7 mph (SW)    
Max Wind Speed 17 mph    
Max Gust Speed 24 mph    
Visibility 10 miles    
Events      
T = Trace of Precipitation, MM = Missing Value Source: NWS Daily Summary

Daily Weather History Graph

Daily Weather History Graph

Search for Another Location

Airport or City:

Trip Planner

Search our weather history database for the weather conditions in past years. The results will help you decide how hot, cold, wet, or windy it might be!

Date:

Astronomy

Mar. 25, 2014 Rise Set
Actual Time 6:42 AM EDT 7:05 PM EDT
Civil Twilight 6:14 AM EDT 7:33 PM EDT
Nautical Twilight 5:41 AM EDT 8:06 PM EDT
Astronomical Twilight 5:07 AM EDT 8:40 PM EDT
Moon 3:07 AM EDT (3/25) 1:27 PM EDT (3/25)
Length of Visible Light 13h 19m
Length of Day
12h 23m
Waning Crescent, 32% of the Moon is Illuminated
Mar 25
Waning Crescent
Mar 30
New
Apr 7
First Quarter
Apr 15
Full
Apr 22
Last Quarter

Hourly Weather History & Observations

Time (EDT) Temp. Windchill Dew Point Humidity Pressure Visibility Wind Dir Wind Speed Gust Speed Precip Events Conditions
12:54 AM 19.0 °F 6.8 °F 3.0 °F 50% 30.13 in 10.0 mi WNW 11.5 mph - N/A   Clear
1:54 AM 17.1 °F 10.0 °F 3.0 °F 54% 30.13 in 10.0 mi West 4.6 mph - N/A   Clear
2:54 AM 15.1 °F 7.7 °F 3.9 °F 61% 30.11 in 10.0 mi WSW 4.6 mph - N/A   Clear
3:54 AM 14.0 °F 3.9 °F 3.9 °F 64% 30.11 in 10.0 mi WSW 6.9 mph - N/A   Clear
4:54 AM 14.0 °F 5.1 °F 3.9 °F 64% 30.12 in 10.0 mi WSW 5.8 mph - N/A   Clear
5:54 AM 12.9 °F 3.8 °F 3.9 °F 67% 30.11 in 10.0 mi WSW 5.8 mph - N/A   Clear
6:54 AM 14.0 °F 2.9 °F 5.0 °F 67% 30.13 in 10.0 mi WSW 8.1 mph - N/A   Clear
7:54 AM 17.1 °F 7.6 °F 7.0 °F 65% 30.13 in 10.0 mi SW 6.9 mph - N/A   Clear
8:54 AM 21.0 °F 12.4 °F 6.1 °F 53% 30.11 in 10.0 mi SSW 6.9 mph - N/A   Clear
9:54 AM 24.1 °F 15.2 °F 3.0 °F 40% 30.10 in - SW 8.1 mph - N/A   Clear
10:54 AM 26.1 °F 19.4 °F 3.9 °F 39% 30.10 in 10.0 mi SW 5.8 mph - N/A   Clear
11:54 AM - - - N/A% 30.03 in 10.0 mi WSW 16.1 mph - N/A   Partly Cloudy
12:54 PM 30.9 °F 20.7 °F -0.9 °F 26% 30.08 in 10.0 mi West 13.8 mph 24.2 mph 0.00 in   Partly Cloudy
1:54 PM 30.9 °F - 3.9 °F 32% 30.06 in 10.0 mi North - - N/A   Mostly Cloudy
2:54 PM 33.1 °F 23.0 °F 6.1 °F 32% 30.04 in 10.0 mi SW 15.0 mph 21.9 mph N/A   Overcast
3:54 PM 32.0 °F 23.6 °F 8.1 °F 37% 30.02 in 10.0 mi South 10.4 mph - N/A   Overcast
4:54 PM 32.0 °F 23.6 °F 7.0 °F 35% 29.99 in 10.0 mi West 10.4 mph - N/A   Partly Cloudy
5:54 PM 32.0 °F 24.2 °F 6.1 °F 34% 29.99 in 10.0 mi South 9.2 mph - N/A   Mostly Cloudy
6:54 PM 30.9 °F 26.2 °F 8.1 °F 38% 29.99 in 10.0 mi South 4.6 mph - N/A   Clear
7:54 PM 30.0 °F 26.5 °F 8.1 °F 40% 29.95 in 10.0 mi East 3.5 mph - N/A   Clear
8:54 PM 30.0 °F 25.2 °F 10.0 °F 43% 29.98 in 10.0 mi SE 4.6 mph - N/A   Mostly Cloudy
9:54 PM 28.0 °F 21.7 °F 12.9 °F 53% 29.98 in 10.0 mi SE 5.8 mph - N/A   Overcast
10:54 PM 28.0 °F - 15.1 °F 58% 29.95 in 10.0 mi Calm Calm - N/A   Overcast
11:54 PM 27.0 °F 20.5 °F 16.0 °F 63% 29.85 in 10.0 mi NNE 5.8 mph - N/A   Overcast